SCP
0 0 0 0 0 0 0 0 0 0 0 0 0 0 0 0 0 0 0 0 0 0 0 0 0 0 0 0 0 0 0 0 0 0 0 0 0 0 0 0 0 0 0
0 0 0 0 0 0 0 0 0 0 0 0 0 0 0 0 0 0 0 0 0 0 0 0 0 0 0 0 0 0 0 0 0 0 0 0 0 0 0 0 0 0 0
0 0 0 0 0 0 0 0 0 0 0 0 0 0 0 0 0 0 0 0 0 0 0 0 0 0 0 0 0 0 0 0 0 0 0 0 0 0 0 0 0 0 0
0 0 0 0 0 0 0 0 0 0 0 0 0 0 0 0 0 0 0 0 0 0 0 0 0 0 0 0 0 0 0 0 0 0 0 0 0 0 0 0 0 0 0
0 0 0 0 0 0 0 0 0 0 0 0 0 0 0 0 0 0 0 0 0 0 0 0 0 0 0 0 0 0 0 0 0 0 0 0 0 0 0 0 0 0 0
0 0 0 0 0 0 0 0 0 0 0 0 0 0 0 0 0 0 0 0 0 0 0 0 0 0 0 0 0 0 0 0 0 0 0 0 0 0 0 0 0 0 0
0 0 0 0 0 0 0 0 0 0 0 0 0 0 0 0 0 0 0 0 0 0 0 0 0 0 0 0 0 0 0 0 0 0 0 0 0 0 0 0 0 0 0
0 0 0 0 0 0 0 0 0 0 0 0 0 0 0 0 0 0 0 0 0 0 0 0 0 0 0 0 0 0 0 0 0 0 0 0 0 0 0 0 0 0 0
0 0 0 0 0 0 0 0 0 0 0 0 0 0 0 0 0 0 0 0 0 0 0 0 0 0 0 0 0 0 0 0 0 0 0 0 0 0 0 0 0 0 0
0 0 0 0 0 0 0 0 0 0 0 0 0 0 0 0 0 0 0 0 0 0 0 0 0 0 0 0 0 0 0 0 0 0 0 0 0 0 0 0 0 0 0
0 0 0 0 0 0 0 0 0 0 0 0 0 0 0 0 0 0 0 0 0 0 0 0 0 0 0 0 0 0 0 0 0 0 0 0 0 0 0 0 0 0 0
0 0 0 0 0 0 0 0 0 0 0 0 0 0 0 0 0 0 0 0 0 0 0 0 0 0 0 0 0 0 0 0 0 0 0 0 0 0 0 0 0 0 0
0 0 0 0 0 0 0 0 0 0 0 0 0 0 0 0 0 0 0 0 0 0 0 0 0 0 0 0 0 0 0 0 0 0 0 0 0 0 0 0 0 0 0
0 0 0 0 0 0 0 0 0 0 0 0 0 0 0 0 0 0 0 0 0 0 0 0 0 0 0 0 0 0 0 0 0 0 0 0 0 0 0 0 0 0 0
0 0 0 0 0 0 0 0 0 0 0 0 0 0 0 0 0 0 0 0 0 0 0 0 0 0 0 0 0 0 0 0 0 0 0 0 0 0 0 0 0 0 0
0 0 0 0 0 0 0 0 0 0 0 0 0 0 0 0 0 0 0 0 0 0 0 0 0 0 0 0 0 0 0 0 0 0 0 0 0 0 0 0 0 0 0
0 0 0 0 0 0 0 0 0 0 0 0 0 0 0 0 0 0 0 0 0 0 0 0 0 0 0 0 0 0 0 0 0 0 0 0 0 0 0 0 0 0 0
0 0 0 0 0 0 0 0 0 0 0 0 0 0 0 0 0 0 0 0 0 0 0 0 0 0 0 0 0 0 0 0 0 0 0 0 0 0 0 0 0 0 0
0 0 0 0 0 0 0 0 0 0 0 0 0 0 0 0 0 0 0 0 0 0 0 0 0 0 0 0 0 0 0 0 0 0 0 0 0 0 0 0 0 0 0
0 0 0 0 0 0 0 0 0 0 0 0 0 0 0 0 0 0 0 0 0 0 0 0 0 0 0 0 0 0 0 0 0 0 0 0 0 0 0 0 0 0 0
0 0 0 0 0 0 0 0 0 0 0 0 0 0 0 0 0 0 0 0 0 0 0 0 0 0 0 0 0 0 0 0 0 0 0 0 0 0 0 0 0 0 0
0 0 0 0 0 0 0 0 0 0 0 0 0 0 0 0 0 0 0 0 0 0 0 0 0 0 0 0 0 0 0 0 0 0 0 0 0 0 0 0 0 0 0
0 0 0 0 0 0 0 0 0 0 0 0 0 0 0 0 0 0 0 0 0 0 0 0 0 0 0 0 0 0 0 0 0 0 0 0 0 0 0 0 0 0 0
0 0 0 0 0 0 0 0 0 0 0 0 0 0 0 0 0 0 0 0 0 0 0 0 0 0 0 0 0 0 0 0 0 0 0 0 0 0 0 0 0 0 0
0 0 0 0 0 0 0 0 0 0 0 0 0 0 0 0 0 0 0 0 0 0 0 0 0 0 0 0 0 0 0 0 0 0 0 0 0 0 0 0 0 0 0
0 0 0 0 0 0 0 0 0 0 0 0 0 0 0 0 0 0 0 0 0 0 0 0 0 0 0 0 0 0 0 0 0 0 0 0 0 0 0 0 0 0 0
Wind_Speed_500mb
30 26 25 26 23 18 12 11 8 7 8 10 12 12 15 16 13 7 10 9 7 16 18 16 10 5 17 22 21 17 15 18 22 23 23 25 25 25 28 29 30 31 31
29 29 35 26 22 16 15 13 11 10 12 12 11 12 14 15 13 9 10 12 12 13 17 20 22 24 27 24 24 18 19 19 22 22 23 25 26 26 28 30 31 32 34
26 35 39 25 24 22 16 14 13 14 14 13 14 15 14 14 14 13 10 13 16 16 18 23 27 27 28 25 21 21 18 21 24 25 27 28 27 27 29 30 30 33 35
36 47 35 30 25 22 18 16 16 17 16 15 15 16 16 16 15 16 18 19 18 21 23 24 24 24 23 23 24 23 23 25 27 31 31 29 27 27 29 29 30 32 35
49 40 35 31 26 23 20 20 21 21 20 19 18 18 18 17 19 22 22 22 23 25 23 22 23 23 21 22 23 26 29 33 34 33 31 31 28 29 28 29 30 32 33
46 40 37 33 30 28 25 25 25 24 24 22 20 18 19 21 22 24 24 26 26 25 25 25 23 23 23 23 27 29 31 35 36 36 35 35 33 32 30 30 32 34 36
48 40 36 37 33 31 29 28 28 27 26 24 21 20 20 22 25 28 29 30 28 28 27 26 26 26 25 25 28 30 34 37 38 36 37 38 39 39 35 31 33 34 35
47 40 40 34 33 33 33 34 32 31 30 28 20 17 12 21 30 32 33 32 31 30 29 29 29 27 28 29 28 31 35 38 36 35 36 38 39 40 38 33 34 37 39
42 41 39 34 35 36 35 35 35 33 29 32 30 17 10 11 17 24 29 33 33 33 33 33 32 32 31 31 30 34 36 37 35 34 36 38 40 42 42 38 36 38 39
48 46 43 38 39 38 38 38 36 35 32 30 32 34 34 25 12 13 25 28 33 35 35 36 36 35 34 33 32 33 35 38 37 37 38 40 43 44 45 43 41 43 44
52 49 46 42 42 43 42 39 37 35 32 30 29 31 33 35 35 34 18 27 31 33 37 38 39 40 37 35 35 37 38 40 42 42 44 43 44 46 49 50 45 44 46
56 54 51 47 47 45 41 39 37 36 31 29 31 32 28 23 26 30 28 24 35 34 33 38 41 43 41 39 40 38 42 44 46 47 47 48 50 50 54 56 54 49 51
58 57 56 54 51 47 44 40 37 32 27 29 29 27 26 28 30 27 28 25 33 31 39 39 42 42 42 44 44 44 48 49 49 52 53 54 56 55 57 58 61 60 60
60 64 60 59 52 48 44 41 35 29 29 24 21 27 28 28 28 27 28 28 31 29 39 43 43 42 44 45 46 53 53 57 56 57 59 58 60 60 61 63 65 67 67
69 69 65 56 53 51 44 34 26 24 22 21 30 37 33 30 29 29 30 31 32 26 27 36 44 47 46 48 55 61 61 62 60 62 61 62 62 63 65 67 69 68 70
71 72 62 57 47 44 40 30 25 25 27 36 40 38 34 35 34 33 35 35 38 41 44 43 52 57 57 60 62 68 67 68 64 64 66 65 63 65 66 69 71 70 73
66 63 60 55 47 30 23 20 33 35 41 42 40 38 39 40 39 41 43 43 43 45 54 62 63 63 68 69 68 71 70 70 70 68 69 68 66 68 71 68 68 72 75
64 58 51 40 37 24 32 38 41 45 44 44 42 43 44 45 45 48 51 50 51 53 60 68 68 69 75 74 75 77 75 73 74 73 71 72 71 68 69 65 67 72 74
46 48 43 41 34 31 34 37 46 48 46 45 45 48 51 51 51 54 56 57 61 61 64 72 78 77 79 79 82 81 80 76 77 75 77 77 74 73 64 65 69 72 72
38 41 32 20 31 31 40 44 42 44 45 47 51 56 56 57 58 60 63 65 66 67 69 75 82 87 85 84 81 84 86 83 83 78 76 81 71 68 71 71 65 67 69
26 16 23 30 32 37 40 38 41 45 47 51 56 58 59 60 62 66 69 70 70 72 74 80 88 89 91 86 84 82 87 86 88 81 77 70 76 74 77 71 68 65 70
32 37 32 29 32 34 34 36 41 46 50 54 57 61 65 65 67 69 71 73 74 77 81 83 90 90 96 89 86 84 87 85 79 62 65 77 85 88 79 77 72 70 74
22 20 21 24 29 32 34 37 42 48 54 58 63 65 67 67 68 72 74 77 78 78 80 84 92 96 97 93 86 84 89 90 89 84 83 98 89 90 82 84 86 81 65
16 15 18 22 28 33 39 44 46 54 58 61 64 66 69 69 69 72 76 82 84 85 86 85 90 94 92 93 92 93 93 92 93 90 76 93 88 90 87 94 90 70 60
13 19 25 29 34 34 36 39 46 53 60 63 64 66 69 72 70 70 78 86 91 93 92 92 92 91 87 76 71 85 90 87 91 77 64 77 86 83 99 96 76 74 87
18 21 23 26 29 32 36 41 48 56 63 67 69 71 71 71 71 71 79 83 93 96 95 94 93 87 76 78 72 101 96 86 79 78 59 55 73 73 77 89 69 94 93
Wind_Direction_500mb
189 184 191 197 191 190 207 224 238 238 204 180 180 173 166 159 168 199 200 206 191 123 130 154 208 260 299 323 335 18 7 1 4 7 9 2 1 1 357 353 349 347 346
190 190 202 197 190 186 206 229 236 220 202 198 196 192 187 183 190 212 212 217 229 231 223 229 252 273 293 310 324 336 348 358 355 1 359 355 353 351 348 347 346 344 345
189 205 213 198 202 216 230 243 232 215 212 206 204 198 195 198 206 208 225 226 230 246 255 264 275 281 297 307 313 331 344 341 344 342 341 340 343 345 342 344 342 341 337
200 216 214 208 211 228 236 239 223 212 209 207 206 203 207 214 218 224 228 242 252 255 263 275 283 291 299 306 314 325 333 335 333 329 331 335 339 338 341 337 336 333 331
212 216 213 215 218 230 238 233 221 216 215 213 214 217 220 223 227 239 245 254 260 268 274 280 289 298 304 308 312 318 321 322 324 325 328 327 327 330 334 333 332 329 328
212 217 216 220 230 236 240 231 223 218 220 219 219 220 225 230 239 250 254 258 263 268 278 287 291 297 303 309 312 316 318 319 321 321 319 320 322 326 330 329 327 325 325
215 213 217 229 235 241 238 229 222 222 221 217 212 217 228 241 249 256 259 261 264 269 277 282 288 296 302 304 307 310 317 318 318 315 315 317 318 318 322 323 321 319 319
218 217 228 232 236 242 234 226 221 219 220 213 208 224 244 259 258 256 257 260 266 268 273 277 284 289 292 296 301 309 314 318 317 314 313 312 313 315 316 318 317 316 316
216 223 226 235 237 238 234 227 222 221 228 221 215 211 207 236 259 274 258 261 265 267 271 274 279 282 286 292 300 311 316 318 315 313 310 310 313 312 312 312 311 310 310
216 222 227 233 237 237 233 228 225 224 227 228 230 238 244 235 236 273 280 274 267 264 268 270 277 281 283 292 297 305 310 316 319 318 314 314 311 311 311 312 312 312 311
217 224 230 234 235 234 230 228 226 228 226 235 240 252 251 250 249 241 261 280 277 271 266 268 277 279 282 288 293 301 309 318 320 322 319 313 312 310 309 309 308 305 304
221 226 231 233 233 231 228 224 221 218 224 234 243 247 252 255 267 251 253 253 275 283 274 272 274 276 279 284 286 299 307 313 317 317 314 314 313 312 311 309 308 305 305
224 228 233 235 232 227 223 219 215 216 227 242 241 248 257 261 258 260 257 251 260 264 275 275 276 277 277 280 286 301 304 308 310 310 315 314 314 312 309 310 308 306 304
230 229 232 232 228 222 214 211 207 226 240 230 245 261 265 266 263 267 263 256 274 269 275 282 282 280 281 280 289 299 302 302 307 310 313 314 311 309 308 307 303 301 301
231 228 229 227 222 209 204 207 228 220 225 239 257 265 266 267 267 270 269 269 264 268 274 278 279 289 286 286 295 297 299 299 306 306 308 307 306 307 305 303 300 299 300
231 226 223 214 207 205 209 236 224 228 231 237 249 257 265 269 273 275 276 277 274 268 266 281 285 287 291 291 293 293 294 296 298 300 301 302 304 303 302 302 300 299 300
231 218 218 203 194 213 232 244 274 233 233 247 252 260 264 270 277 279 277 277 276 276 276 280 281 286 288 290 291 291 292 293 297 297 296 299 300 301 301 302 299 301 301
216 211 198 187 195 232 246 253 225 248 249 251 257 261 268 274 276 277 279 282 284 282 280 282 286 287 288 292 292 291 291 293 294 295 297 299 299 298 301 302 303 303 301
197 180 185 200 216 233 224 229 251 249 254 260 265 271 273 276 278 280 282 284 283 282 282 283 288 290 290 292 291 290 291 293 293 295 297 298 298 300 301 303 306 305 304
185 179 182 190 212 209 244 255 253 256 262 269 272 273 276 279 282 283 283 283 283 283 284 285 287 289 291 294 291 289 292 294 292 293 294 295 298 299 302 306 308 304 301
160 217 191 205 243 251 252 255 260 266 270 272 274 277 280 281 282 282 281 282 284 283 284 285 286 288 290 289 288 293 291 293 290 293 296 292 297 298 302 305 311 307 304
171 198 221 236 247 255 258 262 267 270 272 276 279 281 281 283 282 284 284 284 283 283 283 285 286 284 288 287 289 287 287 287 289 290 292 290 298 301 304 308 311 309 308
205 216 234 251 261 268 273 277 279 282 281 280 281 283 284 287 289 289 288 285 284 283 283 284 283 283 286 287 287 282 281 283 284 290 295 295 300 302 308 308 311 315 311
215 241 257 269 279 287 286 283 284 282 283 285 287 290 292 291 290 292 294 291 290 289 286 285 284 289 290 288 282 280 277 280 283 288 292 290 299 302 303 307 312 314 316
264 280 289 296 297 299 299 294 292 291 290 292 291 291 293 295 298 296 294 292 292 290 292 291 290 287 285 279 271 265 264 276 282 287 288 291 297 303 306 310 314 319 325
301 307 309 312 315 312 306 302 299 296 297 299 299 301 301 302 301 297 293 293 292 294 292 289 285 282 279 276 261 263 269 273 278 284 291 283 296 302 309 312 308 317 322
Wind_Speed_850mb
30 26 25 26 23 18 12 11 8 7 8 10 12 12 15 16 13 7 10 9 7 16 18 16 10 5 17 22 21 17 15 18 22 23 23 25 25 25 28 29 30 31 31
29 29 35 26 22 16 15 13 11 10 12 12 11 12 14 15 13 9 10 12 12 13 17 20 22 24 27 24 24 18 19 19 22 22 23 25 26 26 28 30 31 32 34
26 35 39 25 24 22 16 14 13 14 14 13 14 15 14 14 14 13 10 13 16 16 18 23 27 27 28 25 21 21 18 21 24 25 27 28 27 27 29 30 30 33 35
36 47 35 30 25 22 18 16 16 17 16 15 15 16 16 16 15 16 18 19 18 21 23 24 24 24 23 23 24 23 23 25 27 31 31 29 27 27 29 29 30 32 35
49 40 35 31 26 23 20 20 21 21 20 19 18 18 18 17 19 22 22 22 23 25 23 22 23 23 21 22 23 26 29 33 34 33 31 31 28 29 28 29 30 32 33
46 40 37 33 30 28 25 25 25 24 24 22 20 18 19 21 22 24 24 26 26 25 25 25 23 23 23 23 27 29 31 35 36 36 35 35 33 32 30 30 32 34 36
48 40 36 37 33 31 29 28 28 27 26 24 21 20 20 22 25 28 29 30 28 28 27 26 26 26 25 25 28 30 34 37 38 36 37 38 39 39 35 31 33 34 35
47 40 40 34 33 33 33 34 32 31 30 28 20 17 12 21 30 32 33 32 31 30 29 29 29 27 28 29 28 31 35 38 36 35 36 38 39 40 38 33 34 37 39
42 41 39 34 35 36 35 35 35 33 29 32 30 17 10 11 17 24 29 33 33 33 33 33 32 32 31 31 30 34 36 37 35 34 36 38 40 42 42 38 36 38 39
48 46 43 38 39 38 38 38 36 35 32 30 32 34 34 25 12 13 25 28 33 35 35 36 36 35 34 33 32 33 35 38 37 37 38 40 43 44 45 43 41 43 44
52 49 46 42 42 43 42 39 37 35 32 30 29 31 33 35 35 34 18 27 31 33 37 38 39 40 37 35 35 37 38 40 42 42 44 43 44 46 49 50 45 44 46
56 54 51 47 47 45 41 39 37 36 31 29 31 32 28 23 26 30 28 24 35 34 33 38 41 43 41 39 40 38 42 44 46 47 47 48 50 50 54 56 54 49 51
58 57 56 54 51 47 44 40 37 32 27 29 29 27 26 28 30 27 28 25 33 31 39 39 42 42 42 44 44 44 48 49 49 52 53 54 56 55 57 58 61 60 60
60 64 60 59 52 48 44 41 35 29 29 24 21 27 28 28 28 27 28 28 31 29 39 43 43 42 44 45 46 53 53 57 56 57 59 58 60 60 61 63 65 67 67
69 69 65 56 53 51 44 34 26 24 22 21 30 37 33 30 29 29 30 31 32 26 27 36 44 47 46 48 55 61 61 62 60 62 61 62 62 63 65 67 69 68 70
71 72 62 57 47 44 40 30 25 25 27 36 40 38 34 35 34 33 35 35 38 41 44 43 52 57 57 60 62 68 67 68 64 64 66 65 63 65 66 69 71 70 73
66 63 60 55 47 30 23 20 33 35 41 42 40 38 39 40 39 41 43 43 43 45 54 62 63 63 68 69 68 71 70 70 70 68 69 68 66 68 71 68 68 72 75
64 58 51 40 37 24 32 38 41 45 44 44 42 43 44 45 45 48 51 50 51 53 60 68 68 69 75 74 75 77 75 73 74 73 71 72 71 68 69 65 67 72 74
46 48 43 41 34 31 34 37 46 48 46 45 45 48 51 51 51 54 56 57 61 61 64 72 78 77 79 79 82 81 80 76 77 75 77 77 74 73 64 65 69 72 72
38 41 32 20 31 31 40 44 42 44 45 47 51 56 56 57 58 60 63 65 66 67 69 75 82 87 85 84 81 84 86 83 83 78 76 81 71 68 71 71 65 67 69
26 16 23 30 32 37 40 38 41 45 47 51 56 58 59 60 62 66 69 70 70 72 74 80 88 89 91 86 84 82 87 86 88 81 77 70 76 74 77 71 68 65 70
32 37 32 29 32 34 34 36 41 46 50 54 57 61 65 65 67 69 71 73 74 77 81 83 90 90 96 89 86 84 87 85 79 62 65 77 85 88 79 77 72 70 74
22 20 21 24 29 32 34 37 42 48 54 58 63 65 67 67 68 72 74 77 78 78 80 84 92 96 97 93 86 84 89 90 89 84 83 98 89 90 82 84 86 81 65
16 15 18 22 28 33 39 44 46 54 58 61 64 66 69 69 69 72 76 82 84 85 86 85 90 94 92 93 92 93 93 92 93 90 76 93 88 90 87 94 90 70 60
13 19 25 29 34 34 36 39 46 53 60 63 64 66 69 72 70 70 78 86 91 93 92 92 92 91 87 76 71 85 90 87 91 77 64 77 86 83 99 96 76 74 87
18 21 23 26 29 32 36 41 48 56 63 67 69 71 71 71 71 71 79 83 93 96 95 94 93 87 76 78 72 101 96 86 79 78 59 55 73 73 77 89 69 94 93
Wind_Direction_850mb
189 184 191 197 191 190 207 224 238 238 204 180 180 173 166 159 168 199 200 206 191 123 130 154 208 260 299 323 335 18 7 1 4 7 9 2 1 1 357 353 349 347 346
190 190 202 197 190 186 206 229 236 220 202 198 196 192 187 183 190 212 212 217 229 231 223 229 252 273 293 310 324 336 348 358 355 1 359 355 353 351 348 347 346 344 345
189 205 213 198 202 216 230 243 232 215 212 206 204 198 195 198 206 208 225 226 230 246 255 264 275 281 297 307 313 331 344 341 344 342 341 340 343 345 342 344 342 341 337
200 216 214 208 211 228 236 239 223 212 209 207 206 203 207 214 218 224 228 242 252 255 263 275 283 291 299 306 314 325 333 335 333 329 331 335 339 338 341 337 336 333 331
212 216 213 215 218 230 238 233 221 216 215 213 214 217 220 223 227 239 245 254 260 268 274 280 289 298 304 308 312 318 321 322 324 325 328 327 327 330 334 333 332 329 328
212 217 216 220 230 236 240 231 223 218 220 219 219 220 225 230 239 250 254 258 263 268 278 287 291 297 303 309 312 316 318 319 321 321 319 320 322 326 330 329 327 325 325
215 213 217 229 235 241 238 229 222 222 221 217 212 217 228 241 249 256 259 261 264 269 277 282 288 296 302 304 307 310 317 318 318 315 315 317 318 318 322 323 321 319 319
218 217 228 232 236 242 234 226 221 219 220 213 208 224 244 259 258 256 257 260 266 268 273 277 284 289 292 296 301 309 314 318 317 314 313 312 313 315 316 318 317 316 316
216 223 226 235 237 238 234 227 222 221 228 221 215 211 207 236 259 274 258 261 265 267 271 274 279 282 286 292 300 311 316 318 315 313 310 310 313 312 312 312 311 310 310
216 222 227 233 237 237 233 228 225 224 227 228 230 238 244 235 236 273 280 274 267 264 268 270 277 281 283 292 297 305 310 316 319 318 314 314 311 311 311 312 312 312 311
217 224 230 234 235 234 230 228 226 228 226 235 240 252 251 250 249 241 261 280 277 271 266 268 277 279 282 288 293 301 309 318 320 322 319 313 312 310 309 309 308 305 304
221 226 231 233 233 231 228 224 221 218 224 234 243 247 252 255 267 251 253 253 275 283 274 272 274 276 279 284 286 299 307 313 317 317 314 314 313 312 311 309 308 305 305
224 228 233 235 232 227 223 219 215 216 227 242 241 248 257 261 258 260 257 251 260 264 275 275 276 277 277 280 286 301 304 308 310 310 315 314 314 312 309 310 308 306 304
230 229 232 232 228 222 214 211 207 226 240 230 245 261 265 266 263 267 263 256 274 269 275 282 282 280 281 280 289 299 302 302 307 310 313 314 311 309 308 307 303 301 301
231 228 229 227 222 209 204 207 228 220 225 239 257 265 266 267 267 270 269 269 264 268 274 278 279 289 286 286 295 297 299 299 306 306 308 307 306 307 305 303 300 299 300
231 226 223 214 207 205 209 236 224 228 231 237 249 257 265 269 273 275 276 277 274 268 266 281 285 287 291 291 293 293 294 296 298 300 301 302 304 303 302 302 300 299 300
231 218 218 203 194 213 232 244 274 233 233 247 252 260 264 270 277 279 277 277 276 276 276 280 281 286 288 290 291 291 292 293 297 297 296 299 300 301 301 302 299 301 301
216 211 198 187 195 232 246 253 225 248 249 251 257 261 268 274 276 277 279 282 284 282 280 282 286 287 288 292 292 291 291 293 294 295 297 299 299 298 301 302 303 303 301
197 180 185 200 216 233 224 229 251 249 254 260 265 271 273 276 278 280 282 284 283 282 282 283 288 290 290 292 291 290 291 293 293 295 297 298 298 300 301 303 306 305 304
185 179 182 190 212 209 244 255 253 256 262 269 272 273 276 279 282 283 283 283 283 283 284 285 287 289 291 294 291 289 292 294 292 293 294 295 298 299 302 306 308 304 301
160 217 191 205 243 251 252 255 260 266 270 272 274 277 280 281 282 282 281 282 284 283 284 285 286 288 290 289 288 293 291 293 290 293 296 292 297 298 302 305 311 307 304
171 198 221 236 247 255 258 262 267 270 272 276 279 281 281 283 282 284 284 284 283 283 283 285 286 284 288 287 289 287 287 287 289 290 292 290 298 301 304 308 311 309 308
205 216 234 251 261 268 273 277 279 282 281 280 281 283 284 287 289 289 288 285 284 283 283 284 283 283 286 287 287 282 281 283 284 290 295 295 300 302 308 308 311 315 311
215 241 257 269 279 287 286 283 284 282 283 285 287 290 292 291 290 292 294 291 290 289 286 285 284 289 290 288 282 280 277 280 283 288 292 290 299 302 303 307 312 314 316
264 280 289 296 297 299 299 294 292 291 290 292 291 291 293 295 298 296 294 292 292 290 292 291 290 287 285 279 271 265 264 276 282 287 288 291 297 303 306 310 314 319 325
301 307 309 312 315 312 306 302 299 296 297 299 299 301 301 302 301 297 293 293 292 294 292 289 285 282 279 276 261 263 269 273 278 284 291 283 296 302 309 312 308 317 322